Back to catalog

STARLINK-36889

AliveCommunicationsVLEO
NORAD 68006·PAYLOAD·🇺🇸 United States

Launched Feb 27, 2026 from Vandenberg Space Force Base

Loading…

Next Passes (next 24 hours)

TLE

FreshSource: CelesTrak SupGP

Epoch: Sep 15, 2026, 04:22 UTC

1 68006C 26039W   26258.18243056 -.00024317  00000+0 -88065-3 0  2588
2 68006  43.0024  58.8886 0001758 266.3677  54.3134 15.27593796    11

Track STARLINK-36889 in real time with AllMySat

Download on the App Store